This is the latest recevied weather packets stored in our database for station/object WB9ZLM. If no packets are shown the sender has not sent any weather packets the latest 10 day(s).
| Time | Temp. | Humidity | Pressure | Rain* | Wind** | Luminosity | Snow |
|---|---|---|---|---|---|---|---|
| 1777987921 | 10° C | 68% | 1012.4 hPa | 0 mm | - | - | - |
| 1777987860 | 10° C | 68% | 1012.4 hPa | 0 mm | - | - | - |
| 1777987021 | 10° C | 66% | 1012.4 hPa | 0 mm | - | - | - |
| 1777986960 | 10° C | 66% | 1012.4 hPa | 0 mm | - | - | - |
| 1777986121 | 10° C | 66% | 1012.5 hPa | 0 mm | - | - | - |
| 1777986060 | 10° C | 66% | 1012.5 hPa | 0 mm | - | - | - |
| 1777985221 | 10° C | 66% | 1013 hPa | 0 mm | - | - | - |
| 1777985160 | 10° C | 66% | 1013 hPa | 0 mm | - | - | - |
| 1777984321 | 10° C | 66% | 1013.4 hPa | 0 mm | - | - | - |
| 1777984261 | 10° C | 66% | 1013.4 hPa | 0 mm | - | - | - |
| 1777983421 | 10° C | 64% | 1013.3 hPa | 0 mm | - | - | - |
| 1777983360 | 10° C | 64% | 1013.3 hPa | 0 mm | - | - | - |
| 1777982521 | 10.56° C | 60% | 1012.8 hPa | 0 mm | - | - | - |
| 1777982460 | 10.56° C | 60% | 1012.8 hPa | 0 mm | - | - | - |
| 1777981621 | 10.56° C | 60% | 1011.2 hPa | 0 mm | - | - | - |
| 1777981560 | 10.56° C | 60% | 1011.2 hPa | 0 mm | - | - | - |
| 1777980721 | 11.11° C | 60% | 1010.9 hPa | 0 mm | - | - | - |
| 1777980660 | 11.11° C | 60% | 1010.9 hPa | 0 mm | - | - | - |
| 1777979821 | 11.11° C | 57% | 1011.6 hPa | 0 mm | - | - | - |
| 1777979760 | 11.11° C | 57% | 1011.6 hPa | 0 mm | - | - | - |
| 1777978921 | 11.67° C | 56% | 1011.4 hPa | 0 mm | - | - | - |
| 1777978860 | 11.67° C | 56% | 1011.4 hPa | 0 mm | - | - | - |
| 1777978021 | 11.67° C | 57% | 1011.1 hPa | 0 mm | - | - | - |
| 1777977960 | 11.67° C | 57% | 1011.1 hPa | 0 mm | - | - | - |
| 1777977121 | 11.67° C | 56% | 1011.2 hPa | 0 mm | - | - | - |
* Rain latest hour (hover to see other rain measurements)
** Current wind speed in m/s (hover to see current wind gust speed)